[[{"header":{"parameterUnit":"m.s-1","parameterCategory":1,"la1":30.2991,"la2":30.254,"lo1":-89.0895,"lo2":-89.0444,"dy":0.0017,"dx":0.0017,"nx":28,"ny":28,"refTime":"2023-09-07T09:00:00:Z","depth":0,"parameterNumber":2,"parameterNumberName":"U-component_of_WINDS"},"data":[0,0,0,0,0,0,0,0,0,0,0,0,0,0,0,0,0,0,0,0,0,0,0,0,0,0,0,0,0,0,0,0,0,0,0,0,0,0,0,0,0,0,0,0,0,0,0,0,0,0,0,0,0,0,0,0,0,0,0.5035,0.5037,0,0.5151,0.5153,0.5154,0.5191,0.519,0.519,0.5189,0.531,0.5314,0.5318,0,0,0,0,0,0,0,0,0,0,0,0,0,0.4845,0.4849,0.5035,0.5037,0.5038,0.5151,0.5153,0.5154,0.5191,0.519,0.519,0.5189,0.5309,0.5313,0.5318,0,0,0,0,0,0,0,0,0,0,0,0,0,0.4941,0.485,0.5035,0.507,0.5074,0.5151,0.5153,0.5155,0.5191,0.519,0.5189,0.5189,0.5308,0.5313,0.5318,0.5369,0,0,0.5336,0.5338,0,0,0,0,0,0,0,0,0.4936,0.4948,0.5063,0.5068,0.5073,0.5156,0.513,0.5227,0.5191,0.5147,0.5189,0.5188,0.526,0.5269,0.5293,0.5375,0.538,0.5336,0.5339,0.5342,0.5343,0,0,0,0,0,0,0,0.4929,0.4943,0.5081,0.5065,0.5071,0.508,0.5093,0.5149,0.5206,0.5151,0.5154,0.5167,0.5262,0.5287,0.5296,0.5382,0.5336,0.5341,0.5344,0.5346,0.5509,0.551,0,0,0,0,0,0,0.4916,0.4938,0.5078,0.5085,0.5001,0.5084,0.5098,0.513,0.5206,0.5217,0.5167,0.5168,0.5278,0.5289,0.53,0.5363,0.5342,0.5347,0.535,0.5508,0.5509,0.551,0,0,0,0,0,0,0.4912,0.4929,0.5073,0.5012,0.5031,0.5088,0.5123,0.5133,0.5158,0.5218,0.5229,0.5182,0.5278,0.5292,0.5351,0.5368,0.535,0.5355,0.5507,0.5508,0.551,0.549,0,0,0,0,0,0,0.4907,0.4927,0.4947,0.5012,0.5034,0.5122,0.5124,0.5135,0.5167,0.5169,0.5235,0.5246,0.5278,0.5342,0.5357,0.5375,0.5359,0.5506,0.5507,0.5509,0.5489,0.549,0.5491,0,0,0,0,0,0.49,0.4938,0.4948,0.4964,0.506,0.5123,0.5135,0.5171,0.5168,0.5189,0.5227,0.5244,0.5363,0.5348,0.5364,0.5385,0.5505,0.5507,0.5509,0.5489,0.549,0.5491,0,0,0,0,0,0,0.4874,0.4947,0.4959,0.5019,0.5064,0.5129,0.5156,0.5172,0.522,0.522,0.5263,0.5278,0.5333,0.5365,0.5347,0.5437,0.5435,0.544,0.5414,0.5416,0.5417,0.5408,0.5364,0,0,0,0,0,0.4875,0.492,0.4981,0.5028,0.505,0.5099,0.5127,0.5151,0.52,0.5219,0.5262,0.5309,0.5357,0.5388,0.5436,0.5494,0.5508,0.5516,0.5517,0.5517,0.5522,0.5552,0.5556,0.5517,0.5517,0.5517,0,0,0.4879,0.4924,0.495,0.5024,0.5062,0.5106,0.5115,0.5162,0.5195,0.5227,0.5284,0.5317,0.5372,0.543,0.5458,0.5458,0.5535,0.552,0.552,0.5524,0.5555,0.5559,0.5562,0.5519,0.5518,0.5518,0,0,0.4907,0.4946,0.4989,0.5026,0.5082,0.5114,0.5124,0.5186,0.5208,0.5266,0.529,0.533,0.5413,0.545,0.548,0.552,0.5536,0.5534,0.554,0.557,0.5573,0.5576,0.5589,0.5593,0.5538,0.5538,0.5538,0,0.4904,0.4972,0.5009,0.5054,0.5086,0.5114,0.5157,0.5192,0.5261,0.5282,0.5282,0.5384,0.5423,0.5489,0.5498,0.5522,0.5534,0.5527,0.5569,0.5572,0.5576,0.5589,0.5593,0.5538,0.5538,0.5538,0.5538,0,0.4965,0.5012,0.5039,0.5104,0.5138,0.5183,0.5225,0.5256,0.5276,0.5307,0.5365,0.5413,0.5469,0.5487,0.5508,0.5555,0.5554,0.5561,0.556,0.5578,0.5591,0.5596,0.5537,0.5537,0.5537,0.5537,0,0,0.4983,0.5065,0.5074,0.5103,0.5166,0.5203,0.5247,0.5302,0.5326,0.5373,0.5411,0.5478,0.5484,0.5518,0.5543,0.5569,0.5595,0.5573,0.5575,0.5574,0.5649,0.5643,0.5648,0.5606,0.5607,0.5608,0.5644,0,0.5018,0.5099,0.5132,0.5197,0.5239,0.5266,0.5304,0.5347,0.5377,0.5417,0.5451,0.5497,0.5503,0.5523,0.5549,0.5586,0.5611,0.5584,0.5641,0.5643,0.5626,0.5655,0.5649,0.5681,0.5649,0.565,0.565,0,0.5072,0.5116,0.5185,0.5241,0.526,0.5294,0.5345,0.5384,0.5432,0.5452,0.5488,0.5511,0.5558,0.5553,0.5618,0.5599,0.5624,0.5645,0.5647,0.5654,0.5648,0.5661,0.5692,0.5696,0.5659,0.5658,0.5658,0,0.5075,0.5153,0.5204,0.5228,0.5295,0.5318,0.5347,0.5394,0.5424,0.5469,0.5488,0.5538,0.5566,0.5603,0.5639,0.5632,0.57,0.5698,0.5717,0.5716,0.573,0.5729,0.5764,0.5747,0.5747,0.5747,0.5747,0,0.5112,0.5153,0.5206,0.5237,0.5283,0.532,0.5365,0.5395,0.5437,0.5474,0.55,0.5535,0.558,0.5619,0.5647,0.5696,0.5708,0.5725,0.5732,0.5723,0.572,0.574,0.5738,0.5748,0.5748,0.5748,0.5747,0,0.5125,0.5162,0.5219,0.5277,0.5292,0.5323,0.5372,0.5403,0.5433,0.548,0.5493,0.5541,0.5589,0.5627,0.5691,0.5709,0.576,0.5768,0.5743,0.5747,0.5763,0.576,0.5812,0.582,0.5797,0.5797,0.5797,0,0.5145,0.5177,0.5237,0.5263,0.5292,0.5334,0.5364,0.5401,0.5431,0.5487,0.5511,0.556,0.5602,0.5677,0.5717,0.5765,0.5774,0.5789,0.5782,0.5771,0.5774,0.5771,0.5774,0.579,0.579,0.579,0.579,0,0.5177,0.5194,0.5236,0.5284,0.5318,0.5358,0.5399,0.5419,0.5463,0.5495,0.5544,0.5576,0.5639,0.5687,0.5739,0.5769,0.5786,0.5791,0.5798,0.5789,0.5773,0.5781,0.5744,0.579,0.579,0.579,0.579,0.579,0.5194,0.5223,0.5269,0.5314,0.5348,0.5385,0.5416,0.5449,0.549,0.5544,0.5563,0.5613,0.5658,0.5729,0.5759,0.5798,0.58,0.581,0.5812,0.5814,0.5812,0.5766,0.5807,0.5807,0.5807,0.5807,0.5807,0,0.5226,0.5257,0.5298,0.5353,0.5388,0.5401,0.5446,0.5474,0.5517,0.5558,0.5598,0.5652,0.5699,0.5742,0.579,0.5813,0.5822,0.5824,0.5823,0.5829,0.5808,0.5797,0.5816,0.5816,0.5816,0.5816,0.5816,0.5816,0.5248,0.5296,0.5318,0.5382,0.5413,0.5461,0.5485,0.5519,0.5551,0.5611,0.5649,0.5676,0.5718,0.5769,0.5811,0.5823,0.5839,0.5839,0.5852,0.5832,0.5831,0.583,0.5819,0.5842,0.5842,0.587,0.587,0.5871]},{"header":{"parameterUnit":"m.s-1","parameterCategory":1,"la1":30.2991,"la2":30.254,"lo1":-89.0895,"lo2":-89.0444,"dy":0.0017,"dx":0.0017,"nx":28,"ny":28,"refTime":"2023-09-07T09:00:00:Z","depth":0,"parameterNumber":3,"parameterNumberName":"V-component_of_WINDS"},"data":[0,0,0,0,0,0,0,0,0,0,0,0,0,0,0,0,0,0,0,0,0,0,0,0,0,0,0,0,0,0,0,0,0,0,0,0,0,0,0,0,0,0,0,0,0,0,0,0,0,0,0,0,0,0,0,0,0,0,4.6843,4.6842,0,4.6782,4.6782,4.6781,4.6737,4.6737,4.6736,4.6736,4.6672,4.667,4.6669,0,0,0,0,0,0,0,0,0,0,0,0,0,4.6917,4.6916,4.6843,4.6842,4.6842,4.6783,4.6782,4.6781,4.6737,4.6737,4.6736,4.6736,4.6672,4.667,4.6669,0,0,0,0,0,0,0,0,0,0,0,0,0,4.6874,4.6916,4.6843,4.6813,4.6809,4.6783,4.6782,4.6781,4.6737,4.6737,4.6736,4.6736,4.6673,4.6671,4.6669,4.6667,0,0,4.6662,4.6661,0,0,0,0,0,0,0,0,4.6876,4.6871,4.6818,4.6815,4.6811,4.6767,4.6784,4.6742,4.6737,4.6765,4.6736,4.6735,4.6704,4.6699,4.6689,4.6664,4.6661,4.6662,4.6661,4.666,4.6659,0,0,0,0,0,0,0,4.6879,4.6873,4.6819,4.6817,4.6813,4.6801,4.6794,4.6776,4.6738,4.6762,4.6759,4.6752,4.6702,4.6691,4.6687,4.666,4.6662,4.666,4.6659,4.6658,4.6627,4.6627,0,0,0,0,0,0,4.6888,4.6876,4.6821,4.6817,4.6843,4.68,4.6792,4.6782,4.6738,4.6731,4.6753,4.6751,4.6695,4.6689,4.6684,4.6677,4.666,4.6658,4.6657,4.6626,4.6627,4.6627,0,0,0,0,0,0,4.6889,4.6883,4.6823,4.6846,4.6837,4.6799,4.6787,4.6781,4.677,4.6731,4.6724,4.6749,4.6694,4.6687,4.6671,4.6674,4.6657,4.6655,4.6626,4.6626,4.6627,4.6664,0,0,0,0,0,0,4.6892,4.6884,4.6884,4.6846,4.6836,4.6812,4.6788,4.678,4.6767,4.6763,4.6725,4.6719,4.6693,4.6674,4.6669,4.6671,4.6654,4.6625,4.6626,4.6627,4.6662,4.6666,4.6669,0,0,0,0,0,4.6895,4.6897,4.6884,4.6878,4.6835,4.6812,4.6807,4.6778,4.6767,4.6766,4.674,4.672,4.6675,4.6673,4.6666,4.6668,4.6625,4.6626,4.6627,4.6661,4.6665,4.6668,0,0,0,0,0,0,4.6935,4.6891,4.6877,4.6867,4.6844,4.6805,4.6803,4.6784,4.6762,4.676,4.6724,4.6716,4.6702,4.6684,4.6682,4.6662,4.6647,4.6647,4.6675,4.6679,4.6682,4.6686,4.6652,0,0,0,0,0,4.6944,4.693,4.6891,4.6886,4.6875,4.6841,4.683,4.681,4.6784,4.6774,4.6747,4.6722,4.6702,4.6689,4.6669,4.6659,4.6649,4.6657,4.666,4.6663,4.6663,4.6654,4.6656,4.663,4.663,4.663,0,0,4.696,4.6934,4.6927,4.6894,4.6873,4.6858,4.6833,4.6819,4.6807,4.6771,4.6754,4.6733,4.6703,4.6689,4.6681,4.6673,4.6668,4.6664,4.6667,4.6665,4.6655,4.6657,4.6659,4.6631,4.6631,4.663,0,0,4.6981,4.6961,4.6953,4.6933,4.6903,4.688,4.6878,4.6842,4.6827,4.6809,4.6781,4.6766,4.6733,4.6711,4.6696,4.6707,4.6687,4.6702,4.6718,4.671,4.6712,4.6713,4.6715,4.6717,4.6702,4.6702,4.6702,0,4.7004,4.6982,4.6952,4.6939,4.6924,4.6891,4.6882,4.6864,4.6828,4.6818,4.6809,4.6765,4.6743,4.6722,4.6725,4.6714,4.6709,4.6705,4.6714,4.6715,4.6716,4.6718,4.6719,4.6704,4.6703,4.6703,4.6703,0,4.7011,4.6996,4.6993,4.6959,4.6944,4.6934,4.69,4.6889,4.6869,4.6847,4.6827,4.6799,4.6771,4.6764,4.6746,4.674,4.6736,4.6721,4.6705,4.6721,4.6722,4.6722,4.6706,4.6706,4.6705,4.6705,0,0,4.7056,4.7006,4.7005,4.6989,4.6952,4.6939,4.6925,4.6899,4.6888,4.6864,4.685,4.6822,4.6808,4.679,4.6768,4.6761,4.6769,4.6747,4.6745,4.675,4.6759,4.677,4.6771,4.6756,4.6756,4.6756,4.6761,0,4.7071,4.7046,4.7018,4.7002,4.6986,4.6955,4.6943,4.6918,4.6896,4.6878,4.6853,4.6833,4.6817,4.6806,4.6797,4.677,4.677,4.677,4.6741,4.674,4.6748,4.6772,4.6783,4.679,4.6761,4.6761,4.6761,0,4.7084,4.7062,4.7045,4.7008,4.7,4.699,4.6962,4.6946,4.6916,4.6901,4.6881,4.6857,4.6839,4.6826,4.6799,4.68,4.6786,4.6771,4.677,4.6765,4.6751,4.6766,4.6791,4.6792,4.6762,4.6762,4.6762,0,4.7116,4.7082,4.7067,4.7054,4.7011,4.7004,4.6986,4.6956,4.6941,4.6916,4.6906,4.6879,4.6864,4.6843,4.6812,4.6805,4.6788,4.6772,4.6773,4.6773,4.677,4.677,4.6792,4.6764,4.6764,4.6764,4.6764,0,4.7134,4.7124,4.708,4.7071,4.7058,4.7026,4.7014,4.6992,4.6966,4.695,4.6921,4.6907,4.6867,4.6848,4.6823,4.6804,4.6798,4.6783,4.6776,4.6785,4.6786,4.6775,4.6773,4.6764,4.6764,4.6764,4.6764,0,4.7167,4.7138,4.7119,4.708,4.707,4.7062,4.7028,4.7017,4.6993,4.6973,4.6967,4.6929,4.6904,4.6871,4.6836,4.682,4.6803,4.6793,4.6813,4.6809,4.681,4.681,4.6824,4.6823,4.6797,4.6797,4.6798,0,4.718,4.7172,4.7132,4.712,4.7103,4.7084,4.7068,4.7035,4.702,4.6985,4.6977,4.6951,4.6927,4.6889,4.6857,4.6829,4.6818,4.6824,4.6813,4.6821,4.6816,4.6816,4.6814,4.6827,4.6828,4.6828,4.6828,0,4.7205,4.719,4.717,4.7144,4.7127,4.7105,4.7081,4.7072,4.7034,4.7018,4.6993,4.6975,4.6938,4.6911,4.6879,4.6858,4.6836,4.6832,4.683,4.6838,4.685,4.6842,4.6819,4.6832,4.6831,4.6831,4.6831,4.6831,4.7227,4.7217,4.7188,4.7165,4.7144,4.7122,4.7109,4.7084,4.7063,4.7032,4.7013,4.6988,4.6956,4.6911,4.6891,4.6869,4.6861,4.6859,4.6858,4.6858,4.686,4.6854,4.6863,4.6863,4.6863,4.6863,4.6863,0,4.7248,4.7228,4.7208,4.7176,4.7158,4.714,4.7112,4.7098,4.7077,4.705,4.7027,4.6997,4.697,4.6936,4.6907,4.6896,4.6885,4.6889,4.6889,4.6884,4.687,4.6874,4.6898,4.6898,4.6898,4.6898,4.6898,4.6898,4.7257,4.724,4.7222,4.7193,4.7172,4.7148,4.7134,4.7113,4.7091,4.7059,4.7037,4.7016,4.6985,4.6952,4.6926,4.6917,4.6906,4.6913,4.6901,4.6888,4.6885,4.6882,4.6885,4.6912,4.6912,4.6916,4.6916,4.6916]}]]